START_TIME,STEP,MOV.,H8,t_acc.,H43,t_acc.,M25,t_acc.,H9,t_acc.
1979-07-01 06:00:30.480 ,0,1,0.,12.0,0.,12.0,0.,12.0,0.,12.0
1979-07-01 06:00:42.480 ,0,1,0.,12.0,0.,12.0,0.,12.0,0.,12.0
1979-07-01 06:00:54.480 ,4,1,0.,12.0,0.,12.0,0.,12.0,0.,12.0
1979-07-01 06:01:06.480 ,4,1,0.,12.0,0.,12.0,0.,12.0,0.,12.0
1979-07-01 06:01:18.480 ,7,1,0.,12.0,0.,12.0,0.,12.0,0.,12.0
1979-07-01 06:01:30.480 ,7,1,0.,12.0,0.,12.0,0.,12.0,0.,12.0
1979-07-01 06:01:42.480 ,3,1,0.,12.0,0.,12.0,0.,12.0,0.,12.0
1979-07-01 06:01:54.480 ,3,1,0.,12.0,0.,12.0,0.,12.0,0.,12.0
1979-07-01 06:02:06.480 ,0,1,0.,12.0,0.,12.0,0.,12.0,0.,12.0
1979-07-01 06:02:18.480 ,0,1,0.,12.0,0.,12.0,0.,12.0,0.,12.0
1979-07-01 06:02:30.480 ,4,1,0.,12.0,0.,12.0,0.,12.0,0.,12.0
1979-07-01 06:02:42.480 ,4,1,0.,12.0,0.,12.0,0.,12.0,0.,12.0
1979-07-01 06:02:54.480 ,7,1,0.,12.0,0.,12.0,0.,12.0,0.,12.0
1979-07-01 06:03:06.480 ,7,1,0.,12.0,0.,12.0,0.,12.0,0.,12.0
1979-07-01 06:03:18.480 ,3,1,0.,12.0,0.,12.0,0.,12.0,0.,12.0
1979-07-01 06:03:30.480 ,3,1,0.,12.0,0.,12.0,0.,12.0,0.,12.0
1979-07-01 06:03:42.480 ,0,1,0.,12.0,0.,12.0,0.,12.0,0.,12.0
1979-07-01 06:03:54.480 ,0,1,0.,12.0,0.,12.0,0.,12.0,0.,12.0
1979-07-01 06:04:06.480 ,4,1,0.,12.0,0.,12.0,0.,12.0,0.,12.0
1979-07-01 06:04:18.480 ,4,1,0.,12.0,0.,12.0,0.,12.0,0.,12.0
1979-07-01 06:04:30.480 ,7,1,0.,12.0,0.,12.0,0.,12.0,0.,12.0
1979-07-01 06:04:42.480 ,7,1,0.,12.0,0.,12.0,0.,12.0,0.,12.0
1979-07-01 06:04:54.480 ,3,1,0.,12.0,0.,12.0,0.,12.0,0.,12.0
1979-07-01 06:05:06.480 ,3,1,0.,12.0,0.,12.0,0.,12.0,0.,12.0
1979-07-01 06:05:18.480 ,0,1,0.,12.0,0.,12.0,0.,12.0,0.,12.0
1979-07-01 06:05:30.480 ,0,1,0.,12.0,0.,12.0,0.,12.0,0.,12.0
1979-07-01 06:05:42.480 ,0,0,0.,12.0,0.,12.0,0.,12.0,0.,12.0
1979-07-01 06:05:54.480 ,0,0,0.,12.0,0.,12.0,0.,12.0,0.,12.0
1979-07-01 06:06:06.480 ,0,0,0.,12.0,0.,12.0,0.,12.0,0.,12.0
1979-07-01 06:06:18.480 ,0,0,0.,12.0,0.,12.0,0.,12.0,0.,12.0
1979-07-01 06:06:30.480 ,5,0,0.,12.0,0.,12.0,0.,12.0,0.,12.0
1979-07-01 06:06:42.480 ,5,0,0.,12.0,0.,12.0,0.,12.0,0.,12.0
1979-07-01 06:06:54.480 ,5,0,0.,12.0,0.,12.0,0.,12.0,0.,12.0
1979-07-01 06:07:06.480 ,5,0,0.,12.0,0.,12.0,0.,12.0,0.,12.0
1979-07-01 06:07:18.480 ,4,0,0.,12.0,0.,12.0,0.,12.0,0.,12.0
1979-07-01 06:07:30.480 ,4,0,0.,12.0,0.,12.0,0.,12.0,0.,12.0
1979-07-01 06:07:42.480 ,4,0,0.,12.0,0.,12.0,0.,12.0,0.,12.0
1979-07-01 06:07:54.480 ,4,0,1.,12.0,0.,12.0,0.,12.0,0.,12.0
1979-07-01 06:08:06.480 ,3,0,0.,12.0,0.,12.0,0.,12.0,0.,12.0
1979-07-01 06:08:18.480 ,3,0,0.,12.0,0.,12.0,0.,12.0,0.,12.0
1979-07-01 06:08:30.480 ,3,0,0.,12.0,0.,12.0,0.,12.0,0.,12.0
1979-07-01 06:08:42.480 ,3,0,0.,12.0,0.,12.0,0.,12.0,0.,12.0
1979-07-01 06:08:54.480 ,2,0,0.,12.0,0.,12.0,0.,12.0,0.,12.0
1979-07-01 06:09:06.480 ,2,0,0.,12.0,0.,12.0,0.,12.0,0.,12.0
1979-07-01 06:09:18.480 ,2,0,0.,12.0,0.,12.0,0.,12.0,0.,12.0
1979-07-01 06:09:30.480 ,2,0,0.,12.0,0.,12.0,0.,12.0,0.,12.0
1979-07-01 06:09:42.480 ,1,0,0.,12.0,0.,12.0,0.,12.0,0.,12.0
1979-07-01 06:09:54.480 ,1,0,0.,12.0,0.,12.0,0.,12.0,0.,12.0
1979-07-01 06:10:06.480 ,1,0,0.,12.0,0.,12.0,0.,12.0,0.,12.0
1979-07-01 06:10:18.480 ,1,0,0.,12.0,0.,12.0,0.,12.0,0.,12.0
1979-07-01 06:10:30.480 ,0,0,0.,12.0,0.,12.0,0.,12.0,0.,12.0
1979-07-01 06:10:42.480 ,0,0,0.,12.0,0.,12.0,0.,12.0,0.,12.0
1979-07-01 06:10:54.480 ,0,0,0.,12.0,0.,12.0,0.,12.0,0.,12.0
1979-07-01 06:11:06.480 ,0,0,1.,12.0,0.,12.0,0.,12.0,0.,12.0
1979-07-01 06:11:18.480 ,0,0,0.,12.0,0.,12.0,0.,12.0,0.,12.0
1979-07-01 06:11:30.480 ,0,0,0.,12.0,0.,12.0,0.,12.0,0.,12.0
1979-07-01 06:11:42.480 ,0,0,0.,12.0,0.,12.0,0.,12.0,0.,12.0
1979-07-01 06:11:54.480 ,0,0,0.,12.0,0.,12.0,0.,12.0,0.,12.0
1979-07-01 06:12:06.480 ,1,0,0.,12.0,0.,12.0,0.,12.0,0.,12.0
1979-07-01 06:12:18.480 ,1,0,0.,12.0,0.,12.0,0.,12.0,0.,12.0
1979-07-01 06:12:30.480 ,1,0,0.,12.0,0.,12.0,0.,12.0,0.,12.0
1979-07-01 06:12:42.480 ,1,0,0.,12.0,0.,12.0,0.,12.0,0.,12.0
1979-07-01 06:12:54.480 ,2,0,0.,12.0,0.,12.0,0.,12.0,0.,12.0
1979-07-01 06:13:06.480 ,2,0,0.,12.0,0.,12.0,0.,12.0,0.,12.0
1979-07-01 06:13:18.480 ,2,0,0.,12.0,0.,12.0,0.,12.0,0.,12.0
1979-07-01 06:13:30.480 ,2,0,0.,12.0,0.,12.0,0.,12.0,0.,12.0
1979-07-01 06:13:42.480 ,3,0,0.,12.0,0.,12.0,0.,12.0,0.,12.0
1979-07-01 06:13:54.480 ,3,0,0.,12.0,0.,12.0,0.,12.0,0.,12.0
1979-07-01 06:14:06.480 ,3,0,0.,12.0,0.,12.0,0.,12.0,0.,12.0
1979-07-01 06:14:18.480 ,3,0,0.,12.0,0.,12.0,0.,12.0,0.,12.0
1979-07-01 06:14:30.480 ,4,0,0.,12.0,0.,12.0,0.,12.0,0.,12.0
1979-07-01 06:14:42.480 ,4,0,0.,12.0,0.,12.0,0.,12.0,0.,12.0
1979-07-01 06:14:54.480 ,4,0,0.,12.0,0.,12.0,0.,12.0,0.,12.0
1979-07-01 06:15:06.480 ,4,0,0.,12.0,0.,12.0,0.,12.0,0.,12.0
1979-07-01 06:15:18.480 ,5,0,0.,12.0,0.,12.0,0.,12.0,0.,12.0
1979-07-01 06:15:30.480 ,5,0,1.,12.0,0.,12.0,0.,12.0,0.,12.0
1979-07-01 06:15:42.480 ,5,0,0.,12.0,0.,12.0,0.,12.0,0.,12.0
1979-07-01 06:15:54.480 ,5,0,0.,12.0,0.,12.0,0.,12.0,0.,12.0
1979-07-01 06:16:06.480 ,6,0,0.,12.0,0.,12.0,0.,12.0,0.,12.0
1979-07-01 06:16:18.480 ,6,0,0.,12.0,0.,12.0,0.,12.0,0.,12.0
1979-07-01 06:16:30.480 ,6,0,0.,12.0,0.,12.0,0.,12.0,0.,12.0
1979-07-01 06:16:42.480 ,6,0,0.,12.0,0.,12.0,0.,12.0,0.,12.0
1979-07-01 06:16:54.480 ,7,0,0.,12.0,0.,12.0,0.,12.0,0.,12.0
1979-07-01 06:17:06.480 ,7,0,0.,12.0,0.,12.0,0.,12.0,0.,12.0
1979-07-01 06:17:18.480 ,7,0,0.,12.0,0.,12.0,0.,12.0,0.,12.0
1979-07-01 06:17:30.480 ,7,0,0.,12.0,0.,12.0,0.,12.0,0.,12.0
1979-07-01 06:17:42.480 ,7,0,0.,12.0,0.,12.0,0.,12.0,0.,12.0
1979-07-01 06:17:54.480 ,7,0,0.,12.0,0.,12.0,0.,12.0,0.,12.0
1979-07-01 06:18:06.480 ,7,0,0.,12.0,0.,12.0,0.,12.0,0.,12.0
1979-07-01 06:18:18.480 ,7,0,0.,12.0,0.,12.0,0.,12.0,0.,12.0
1979-07-01 06:18:30.480 ,6,0,0.,12.0,0.,12.0,0.,12.0,0.,12.0
1979-07-01 06:18:42.480 ,6,0,0.,12.0,0.,12.0,0.,12.0,0.,12.0
1979-07-01 06:18:54.480 ,6,0,0.,12.0,0.,12.0,0.,12.0,0.,12.0
1979-07-01 06:19:06.480 ,6,0,0.,12.0,0.,12.0,0.,12.0,0.,12.0
1979-07-01 06:19:18.480 ,5,0,0.,12.0,0.,12.0,0.,12.0,0.,12.0
1979-07-01 06:19:30.480 ,5,0,0.,12.0,0.,12.0,0.,12.0,0.,12.0
1979-07-01 06:19:42.480 ,5,0,0.,12.0,0.,12.0,0.,12.0,0.,12.0
1979-07-01 06:19:54.480 ,5,0,0.,12.0,0.,12.0,0.,12.0,0.,12.0
1979-07-01 06:20:06.480 ,4,0,0.,12.0,0.,12.0,0.,12.0,0.,12.0
1979-07-01 06:20:18.480 ,4,0,0.,12.0,0.,12.0,0.,12.0,0.,12.0
1979-07-01 06:20:30.480 ,4,0,0.,12.0,0.,12.0,0.,12.0,0.,12.0
1979-07-01 06:20:42.480 ,4,0,0.,12.0,0.,12.0,0.,12.0,0.,12.0
1979-07-01 06:20:54.480 ,3,0,0.,12.0,0.,12.0,0.,12.0,0.,12.0
1979-07-01 06:21:06.480 ,3,0,0.,12.0,0.,12.0,0.,12.0,0.,12.0
1979-07-01 06:21:18.480 ,3,0,0.,12.0,0.,12.0,0.,12.0,0.,12.0
1979-07-01 06:21:30.480 ,3,0,0.,12.0,0.,12.0,0.,12.0,0.,12.0
1979-07-01 06:21:42.480 ,2,0,0.,12.0,0.,12.0,0.,12.0,0.,12.0
1979-07-01 06:21:54.480 ,2,0,0.,12.0,0.,12.0,0.,12.0,0.,12.0
1979-07-01 06:22:06.480 ,2,0,0.,12.0,0.,12.0,0.,12.0,0.,12.0
1979-07-01 06:22:18.480 ,2,0,0.,12.0,0.,12.0,0.,12.0,0.,12.0
1979-07-01 06:22:30.480 ,1,0,0.,12.0,0.,12.0,0.,12.0,0.,12.0
1979-07-01 06:22:42.480 ,1,0,0.,12.0,0.,12.0,0.,12.0,0.,12.0
1979-07-01 06:22:54.480 ,1,0,0.,12.0,0.,12.0,0.,12.0,0.,12.0
1979-07-01 06:23:06.480 ,1,0,0.,12.0,0.,12.0,0.,12.0,0.,12.0
1979-07-01 06:23:18.480 ,0,0,0.,12.0,0.,12.0,0.,12.0,0.,12.0
1979-07-01 06:23:30.480 ,0,0,0.,12.0,0.,12.0,0.,12.0,0.,12.0
1979-07-01 06:23:42.480 ,0,0,0.,12.0,0.,12.0,0.,12.0,0.,12.0
1979-07-01 06:23:54.480 ,0,0,0.,12.0,0.,12.0,0.,12.0,0.,12.0
1979-07-01 06:24:06.480 ,0,0,0.,12.0,0.,12.0,0.,12.0,0.,12.0
1979-07-01 06:24:18.480 ,0,0,0.,12.0,0.,12.0,0.,12.0,0.,12.0
1979-07-01 06:24:30.480 ,0,0,0.,12.0,0.,12.0,0.,12.0,0.,12.0
1979-07-01 06:24:42.480 ,0,0,0.,12.0,0.,12.0,0.,12.0,0.,12.0
1979-07-01 06:24:54.480 ,1,0,0.,12.0,0.,12.0,0.,12.0,0.,12.0
1979-07-01 06:25:06.480 ,1,0,0.,12.0,0.,12.0,0.,12.0,0.,12.0
1979-07-01 06:25:18.480 ,1,0,0.,12.0,0.,12.0,0.,12.0,0.,12.0
1979-07-01 06:25:30.480 ,1,0,0.,12.0,0.,12.0,0.,12.0,0.,12.0
1979-07-01 06:25:42.480 ,2,0,0.,12.0,0.,12.0,0.,12.0,0.,12.0
1979-07-01 06:25:54.480 ,2,0,0.,12.0,0.,12.0,0.,12.0,0.,12.0
1979-07-01 06:26:06.480 ,2,0,0.,12.0,0.,12.0,0.,12.0,0.,12.0
1979-07-01 06:26:18.480 ,2,0,0.,12.0,0.,12.0,0.,12.0,0.,12.0
1979-07-01 06:26:30.480 ,3,0,0.,12.0,0.,12.0,0.,12.0,0.,12.0
1979-07-01 06:26:42.480 ,3,0,0.,12.0,0.,12.0,0.,12.0,0.,12.0
1979-07-01 06:26:54.480 ,3,0,0.,12.0,0.,12.0,0.,12.0,0.,12.0
1979-07-01 06:27:06.480 ,3,0,0.,12.0,0.,12.0,0.,12.0,0.,12.0
1979-07-01 06:27:18.480 ,4,0,0.,12.0,0.,12.0,0.,12.0,0.,12.0
1979-07-01 06:27:30.480 ,4,0,0.,12.0,0.,12.0,0.,12.0,0.,12.0
1979-07-01 06:27:42.480 ,4,0,0.,12.0,0.,12.0,0.,12.0,0.,12.0
1979-07-01 06:27:54.480 ,4,0,0.,12.0,0.,12.0,0.,12.0,0.,12.0
1979-07-01 06:28:06.480 ,5,0,0.,12.0,0.,12.0,0.,12.0,0.,12.0
1979-07-01 06:28:18.480 ,5,0,0.,12.0,0.,12.0,0.,12.0,0.,12.0
1979-07-01 06:28:30.480 ,5,0,0.,12.0,0.,12.0,0.,12.0,0.,12.0
1979-07-01 06:28:42.480 ,5,0,0.,12.0,0.,12.0,0.,12.0,0.,12.0
1979-07-01 06:28:54.480 ,6,0,0.,12.0,0.,12.0,0.,12.0,0.,12.0
1979-07-01 06:29:06.480 ,6,0,0.,12.0,0.,12.0,0.,12.0,0.,12.0
1979-07-01 06:29:18.480 ,6,0,0.,12.0,0.,12.0,0.,12.0,0.,12.0
1979-07-01 06:29:30.480 ,6,0,0.,12.0,0.,12.0,0.,12.0,0.,12.0
1979-07-01 06:29:42.480 ,7,0,0.,12.0,0.,12.0,0.,12.0,0.,12.0
1979-07-01 06:29:54.480 ,7,0,0.,12.0,0.,12.0,0.,12.0,0.,12.0
1979-07-01 06:30:06.480 ,7,0,0.,12.0,0.,12.0,0.,12.0,0.,12.0
1979-07-01 06:30:18.480 ,7,0,0.,12.0,0.,12.0,0.,12.0,0.,12.0
1979-07-01 06:30:30.480 ,7,0,0.,12.0,0.,12.0,0.,12.0,0.,12.0
1979-07-01 06:30:42.480 ,7,0,0.,12.0,0.,12.0,0.,12.0,0.,12.0
1979-07-01 06:30:54.480 ,7,0,0.,12.0,0.,12.0,0.,12.0,0.,12.0
1979-07-01 06:31:06.480 ,7,0,0.,12.0,0.,12.0,0.,12.0,0.,12.0
1979-07-01 06:31:18.480 ,6,0,0.,12.0,0.,12.0,0.,12.0,0.,12.0
1979-07-01 06:31:30.480 ,6,0,0.,12.0,0.,12.0,0.,12.0,0.,12.0
1979-07-01 06:31:42.480 ,6,0,0.,12.0,0.,12.0,0.,12.0,0.,12.0
1979-07-01 06:31:54.480 ,6,0,0.,12.0,0.,12.0,0.,12.0,0.,12.0
1979-07-01 06:32:06.480 ,5,0,0.,12.0,0.,12.0,0.,12.0,0.,12.0
1979-07-01 06:32:18.480 ,5,0,0.,12.0,0.,12.0,0.,12.0,0.,12.0
1979-07-01 06:32:30.480 ,5,0,0.,12.0,0.,12.0,0.,12.0,0.,12.0
1979-07-01 06:32:42.480 ,5,0,0.,12.0,0.,12.0,0.,12.0,0.,12.0
1979-07-01 06:32:54.480 ,4,0,0.,12.0,0.,12.0,0.,12.0,0.,12.0
1979-07-01 06:33:06.480 ,4,0,0.,12.0,0.,12.0,0.,12.0,0.,12.0
1979-07-01 06:33:18.480 ,4,0,0.,12.0,0.,12.0,0.,12.0,0.,12.0
1979-07-01 06:33:30.480 ,4,0,0.,12.0,0.,12.0,0.,12.0,0.,12.0
1979-07-01 06:33:42.480 ,3,0,0.,12.0,0.,12.0,0.,12.0,0.,12.0
1979-07-01 06:33:54.480 ,3,0,0.,12.0,0.,12.0,0.,12.0,0.,12.0
1979-07-01 06:34:06.480 ,3,0,0.,12.0,0.,12.0,0.,12.0,0.,12.0
1979-07-01 06:34:18.480 ,3,0,0.,12.0,0.,12.0,0.,12.0,0.,12.0
1979-07-01 06:34:30.480 ,2,0,0.,12.0,0.,12.0,0.,12.0,0.,12.0
1979-07-01 06:34:42.480 ,2,0,0.,12.0,0.,12.0,0.,12.0,0.,12.0
1979-07-01 06:34:54.480 ,2,0,0.,12.0,0.,12.0,0.,12.0,0.,12.0
1979-07-01 06:35:06.480 ,2,0,0.,12.0,0.,12.0,0.,12.0,0.,12.0
1979-07-01 06:35:18.480 ,1,0,0.,12.0,0.,12.0,0.,12.0,0.,12.0
1979-07-01 06:35:30.480 ,1,0,0.,12.0,0.,12.0,0.,12.0,0.,12.0
1979-07-01 06:35:42.480 ,1,0,0.,12.0,0.,12.0,0.,12.0,0.,12.0
1979-07-01 06:35:54.480 ,1,0,0.,12.0,0.,12.0,0.,12.0,0.,12.0
1979-07-01 06:36:06.480 ,0,0,0.,12.0,0.,12.0,0.,12.0,0.,12.0
1979-07-01 06:36:18.480 ,0,0,0.,12.0,0.,12.0,0.,12.0,0.,12.0
1979-07-01 06:36:30.480 ,0,0,0.,12.0,0.,12.0,0.,12.0,0.,12.0
1979-07-01 06:36:42.480 ,0,0,1.,12.0,0.,12.0,0.,12.0,0.,12.0
1979-07-01 06:36:54.480 ,0,0,0.,12.0,0.,12.0,0.,12.0,0.,12.0
1979-07-01 06:37:06.480 ,0,0,0.,12.0,0.,12.0,0.,12.0,0.,12.0
1979-07-01 06:37:18.480 ,0,0,0.,12.0,0.,12.0,0.,12.0,0.,12.0
1979-07-01 06:37:30.480 ,0,0,0.,12.0,0.,12.0,0.,12.0,0.,12.0
1979-07-01 06:37:42.480 ,1,0,0.,12.0,0.,12.0,0.,12.0,0.,12.0
1979-07-01 06:37:54.480 ,1,0,0.,12.0,0.,12.0,0.,12.0,0.,12.0
1979-07-01 06:38:06.480 ,1,0,0.,12.0,0.,12.0,0.,12.0,0.,12.0
1979-07-01 06:38:18.480 ,1,0,0.,12.0,0.,12.0,0.,12.0,0.,12.0
1979-07-01 06:38:30.480 ,2,0,0.,12.0,0.,12.0,0.,12.0,0.,12.0
1979-07-01 06:38:42.480 ,2,0,0.,12.0,0.,12.0,0.,12.0,0.,12.0
1979-07-01 06:38:54.480 ,2,0,0.,12.0,0.,12.0,0.,12.0,0.,12.0
1979-07-01 06:39:06.480 ,2,0,0.,12.0,0.,12.0,0.,12.0,0.,12.0
1979-07-01 06:39:18.480 ,3,0,0.,12.0,0.,12.0,0.,12.0,0.,12.0
1979-07-01 06:39:30.480 ,3,0,0.,12.0,0.,12.0,0.,12.0,0.,12.0
1979-07-01 06:39:42.480 ,3,0,0.,12.0,0.,12.0,0.,12.0,0.,12.0
1979-07-01 06:39:54.480 ,3,0,0.,12.0,0.,12.0,0.,12.0,0.,12.0
1979-07-01 06:40:06.480 ,4,0,0.,12.0,0.,12.0,0.,12.0,0.,12.0
1979-07-01 06:40:18.480 ,4,0,0.,12.0,0.,12.0,0.,12.0,0.,12.0
1979-07-01 06:40:30.480 ,4,0,0.,12.0,0.,12.0,0.,12.0,0.,12.0
1979-07-01 06:40:42.480 ,4,0,0.,12.0,0.,12.0,0.,12.0,0.,12.0
1979-07-01 06:40:54.480 ,5,0,0.,12.0,0.,12.0,0.,12.0,0.,12.0
1979-07-01 06:41:06.480 ,5,0,0.,12.0,0.,12.0,0.,12.0,0.,12.0
1979-07-01 06:41:18.480 ,5,0,0.,12.0,0.,12.0,0.,12.0,0.,12.0
1979-07-01 06:41:30.480 ,5,0,0.,12.0,0.,12.0,0.,12.0,0.,12.0
1979-07-01 06:41:42.480 ,6,0,0.,12.0,0.,12.0,0.,12.0,0.,12.0
1979-07-01 06:41:54.480 ,6,0,0.,12.0,0.,12.0,0.,12.0,0.,12.0
1979-07-01 06:42:06.480 ,6,0,0.,12.0,0.,12.0,0.,12.0,0.,12.0
1979-07-01 06:42:18.480 ,6,0,0.,12.0,0.,12.0,0.,12.0,0.,12.0
1979-07-01 06:42:30.480 ,7,0,0.,12.0,0.,12.0,0.,12.0,0.,12.0
1979-07-01 06:42:42.480 ,7,0,0.,12.0,0.,12.0,0.,12.0,0.,12.0
1979-07-01 06:42:54.480 ,7,0,0.,12.0,0.,12.0,0.,12.0,0.,12.0
1979-07-01 06:43:06.480 ,7,0,0.,12.0,0.,12.0,0.,12.0,0.,12.0
1979-07-01 06:43:18.480 ,3,1,0.,12.0,0.,12.0,0.,12.0,0.,12.0
1979-07-01 06:43:30.480 ,3,1,0.,12.0,0.,12.0,0.,12.0,0.,12.0
1979-07-01 06:43:42.480 ,0,1,0.,12.0,0.,12.0,0.,12.0,0.,12.0
1979-07-01 06:43:54.480 ,0,1,0.,12.0,0.,12.0,0.,12.0,0.,12.0
1979-07-01 06:44:06.480 ,4,1,0.,12.0,0.,12.0,0.,12.0,0.,12.0
1979-07-01 06:44:18.480 ,4,1,0.,12.0,0.,12.0,0.,12.0,0.,12.0
1979-07-01 06:44:30.480 ,7,1,0.,12.0,0.,12.0,0.,12.0,0.,12.0
1979-07-01 06:44:42.480 ,7,1,0.,12.0,0.,12.0,0.,12.0,0.,12.0
1979-07-01 06:44:54.480 ,3,1,0.,12.0,0.,12.0,0.,12.0,0.,12.0
1979-07-01 06:45:06.480 ,3,1,0.,12.0,0.,12.0,0.,12.0,0.,12.0
1979-07-01 06:45:18.480 ,0,1,0.,12.0,0.,12.0,0.,12.0,0.,12.0
1979-07-01 06:45:30.480 ,0,1,0.,12.0,0.,12.0,0.,12.0,0.,12.0
1979-07-01 06:45:42.480 ,4,1,0.,12.0,0.,12.0,0.,12.0,0.,12.0
1979-07-01 06:45:54.480 ,4,1,0.,12.0,0.,12.0,0.,12.0,0.,12.0
1979-07-01 06:46:06.480 ,7,1,0.,12.0,0.,12.0,0.,12.0,0.,12.0
1979-07-01 06:46:18.480 ,7,1,0.,12.0,0.,12.0,0.,12.0,0.,12.0
1979-07-01 06:46:30.480 ,3,1,0.,12.0,0.,12.0,0.,12.0,0.,12.0
1979-07-01 06:46:42.480 ,3,1,0.,12.0,0.,12.0,0.,12.0,0.,12.0
1979-07-01 06:46:54.480 ,0,1,0.,12.0,0.,12.0,0.,12.0,0.,12.0
1979-07-01 06:47:06.480 ,0,1,0.,12.0,0.,12.0,0.,12.0,0.,12.0
1979-07-01 06:47:18.480 ,4,1,0.,12.0,0.,12.0,0.,12.0,0.,12.0
1979-07-01 06:47:30.480 ,4,1,0.,12.0,0.,12.0,0.,12.0,0.,12.0
1979-07-01 06:47:42.480 ,7,1,0.,12.0,0.,12.0,0.,12.0,0.,12.0
1979-07-01 06:47:54.480 ,7,1,0.,12.0,0.,12.0,0.,12.0,0.,12.0
1979-07-01 06:48:06.480 ,3,1,0.,12.0,0.,12.0,0.,12.0,0.,12.0
1979-07-01 06:48:18.480 ,3,1,0.,12.0,0.,12.0,0.,12.0,0.,12.0
1979-07-01 06:48:30.480 ,0,1,0.,12.0,0.,12.0,0.,12.0,0.,12.0
1979-07-01 06:48:42.480 ,0,1,0.,12.0,0.,12.0,0.,12.0,0.,12.0
1979-07-01 06:48:54.480 ,4,1,0.,12.0,0.,12.0,0.,12.0,0.,12.0
1979-07-01 06:49:06.480 ,4,1,0.,12.0,0.,12.0,0.,12.0,0.,12.0
1979-07-01 06:49:18.480 ,7,1,0.,12.0,0.,12.0,0.,12.0,0.,12.0
1979-07-01 06:49:30.480 ,7,1,0.,12.0,0.,12.0,0.,12.0,0.,12.0
1979-07-01 06:49:42.480 ,3,1,0.,12.0,0.,12.0,0.,12.0,0.,12.0
1979-07-01 06:49:54.480 ,3,1,0.,12.0,0.,12.0,0.,12.0,0.,12.0
1979-07-01 06:50:06.480 ,0,1,0.,12.0,0.,12.0,0.,12.0,0.,12.0
1979-07-01 06:50:18.480 ,0,1,0.,12.0,0.,12.0,0.,12.0,0.,12.0
1979-07-01 06:50:30.480 ,4,1,0.,12.0,0.,12.0,0.,12.0,0.,12.0
1979-07-01 06:50:42.480 ,4,1,0.,12.0,0.,12.0,0.,12.0,0.,12.0
1979-07-01 06:50:54.480 ,7,1,0.,12.0,0.,12.0,0.,12.0,0.,12.0
1979-07-01 06:51:06.480 ,7,1,0.,12.0,0.,12.0,0.,12.0,0.,12.0
1979-07-01 06:51:18.480 ,3,1,0.,12.0,0.,12.0,0.,12.0,0.,12.0
1979-07-01 06:51:30.480 ,3,1,0.,12.0,0.,12.0,0.,12.0,0.,12.0
1979-07-01 06:51:42.480 ,0,1,0.,12.0,0.,12.0,0.,12.0,0.,12.0
1979-07-01 06:51:54.480 ,0,1,0.,12.0,0.,12.0,0.,12.0,0.,12.0
1979-07-01 06:52:06.480 ,4,1,0.,12.0,0.,12.0,0.,12.0,0.,12.0
1979-07-01 06:52:18.480 ,4,1,0.,12.0,0.,12.0,0.,12.0,0.,12.0
1979-07-01 06:52:30.480 ,7,1,0.,12.0,0.,12.0,0.,12.0,0.,12.0
1979-07-01 06:52:42.480 ,7,1,0.,12.0,0.,12.0,0.,12.0,0.,12.0
1979-07-01 06:52:54.480 ,3,1,0.,12.0,0.,12.0,0.,12.0,0.,12.0
1979-07-01 06:53:06.480 ,3,1,0.,12.0,0.,12.0,0.,12.0,0.,12.0
1979-07-01 06:53:18.480 ,0,1,0.,12.0,0.,12.0,0.,12.0,0.,12.0
1979-07-01 06:53:30.480 ,0,1,0.,12.0,0.,12.0,0.,12.0,0.,12.0
1979-07-01 06:53:42.480 ,0,0,0.,12.0,0.,12.0,0.,12.0,0.,12.0
1979-07-01 06:53:54.480 ,0,0,0.,12.0,0.,12.0,0.,12.0,0.,12.0
1979-07-01 06:54:06.480 ,0,0,0.,12.0,0.,12.0,0.,12.0,0.,12.0
1979-07-01 06:54:18.480 ,0,0,0.,12.0,0.,12.0,0.,12.0,0.,12.0
1979-07-01 06:54:30.480 ,5,0,0.,12.0,0.,12.0,0.,12.0,0.,12.0
1979-07-01 06:54:42.480 ,5,0,0.,12.0,0.,12.0,0.,12.0,0.,12.0
1979-07-01 06:54:54.480 ,5,0,0.,12.0,0.,12.0,0.,12.0,0.,12.0
1979-07-01 06:55:06.480 ,5,0,0.,12.0,0.,12.0,0.,12.0,0.,12.0
1979-07-01 06:55:18.480 ,4,0,0.,12.0,0.,12.0,0.,12.0,0.,12.0
1979-07-01 06:55:30.480 ,4,0,0.,12.0,0.,12.0,0.,12.0,0.,12.0
1979-07-01 06:55:42.480 ,4,0,0.,12.0,0.,12.0,0.,12.0,0.,12.0
1979-07-01 06:55:54.480 ,4,0,0.,12.0,0.,12.0,0.,12.0,0.,12.0
1979-07-01 06:56:06.480 ,3,0,0.,12.0,0.,12.0,0.,12.0,0.,12.0
1979-07-01 06:56:18.480 ,3,0,0.,12.0,0.,12.0,0.,12.0,0.,12.0
1979-07-01 06:56:30.480 ,3,0,0.,12.0,0.,12.0,0.,12.0,0.,12.0
1979-07-01 06:56:42.480 ,3,0,0.,12.0,0.,12.0,0.,12.0,0.,12.0
1979-07-01 06:56:54.480 ,2,0,0.,12.0,0.,12.0,0.,12.0,0.,12.0
1979-07-01 06:57:06.480 ,2,0,0.,12.0,0.,12.0,0.,12.0,0.,12.0
1979-07-01 06:57:18.480 ,2,0,0.,12.0,0.,12.0,0.,12.0,0.,12.0
1979-07-01 06:57:30.480 ,2,0,0.,12.0,0.,12.0,0.,12.0,0.,12.0
1979-07-01 06:57:42.480 ,1,0,0.,12.0,0.,12.0,0.,12.0,0.,12.0
1979-07-01 06:57:54.480 ,1,0,0.,12.0,0.,12.0,0.,12.0,0.,12.0
1979-07-01 06:58:06.480 ,1,0,0.,12.0,0.,12.0,0.,12.0,0.,12.0
1979-07-01 06:58:18.480 ,1,0,0.,12.0,0.,12.0,0.,12.0,0.,12.0
1979-07-01 06:58:30.480 ,0,0,0.,12.0,0.,12.0,0.,12.0,0.,12.0
1979-07-01 06:58:42.480 ,0,0,0.,12.0,0.,12.0,0.,12.0,0.,12.0
1979-07-01 06:58:54.480 ,0,0,0.,12.0,0.,12.0,0.,12.0,0.,12.0
1979-07-01 06:59:06.480 ,0,0,0.,12.0,0.,12.0,0.,12.0,0.,12.0
1979-07-01 06:59:18.480 ,0,0,0.,12.0,0.,12.0,0.,12.0,0.,12.0
1979-07-01 06:59:30.480 ,0,0,0.,12.0,0.,12.0,0.,12.0,0.,12.0
1979-07-01 06:59:42.480 ,0,0,0.,12.0,0.,12.0,0.,12.0,0.,12.0
1979-07-01 06:59:54.480 ,0,0,0.,12.0,0.,12.0,0.,12.0,0.,12.0
1979-07-01 07:00:06.480 ,1,0,0.,12.0,0.,12.0,0.,12.0,0.,12.0
1979-07-01 07:00:18.480 ,1,0,0.,12.0,0.,12.0,0.,12.0,0.,12.0
1979-07-01 07:00:30.480 ,1,0,0.,12.0,0.,12.0,0.,12.0,0.,12.0
1979-07-01 07:00:42.480 ,1,0,0.,12.0,0.,12.0,0.,12.0,0.,12.0
1979-07-01 07:00:54.480 ,2,0,0.,12.0,0.,12.0,0.,12.0,0.,12.0
1979-07-01 07:01:06.480 ,2,0,0.,12.0,0.,12.0,0.,12.0,0.,12.0
1979-07-01 07:01:18.480 ,2,0,0.,12.0,0.,12.0,0.,12.0,0.,12.0
1979-07-01 07:01:30.480 ,2,0,0.,12.0,0.,12.0,0.,12.0,0.,12.0
1979-07-01 07:01:42.480 ,3,0,0.,12.0,0.,12.0,0.,12.0,0.,12.0
1979-07-01 07:01:54.480 ,3,0,0.,12.0,0.,12.0,0.,12.0,0.,12.0
1979-07-01 07:02:06.480 ,3,0,0.,12.0,0.,12.0,0.,12.0,0.,12.0
1979-07-01 07:02:18.480 ,3,0,0.,12.0,0.,12.0,0.,12.0,0.,12.0
1979-07-01 07:02:30.480 ,4,0,0.,12.0,0.,12.0,0.,12.0,0.,12.0
1979-07-01 07:02:42.480 ,4,0,0.,12.0,0.,12.0,0.,12.0,0.,12.0
1979-07-01 07:02:54.480 ,4,0,0.,12.0,0.,12.0,0.,12.0,0.,12.0
1979-07-01 07:03:06.480 ,4,0,0.,12.0,0.,12.0,0.,12.0,0.,12.0
1979-07-01 07:03:18.480 ,5,0,0.,12.0,0.,12.0,0.,12.0,0.,12.0
1979-07-01 07:03:30.480 ,5,0,0.,12.0,0.,12.0,0.,12.0,0.,12.0
1979-07-01 07:03:42.480 ,5,0,0.,12.0,0.,12.0,0.,12.0,0.,12.0
1979-07-01 07:03:54.480 ,5,0,0.,12.0,0.,12.0,0.,12.0,0.,12.0
1979-07-01 07:04:06.480 ,6,0,0.,12.0,0.,12.0,0.,12.0,0.,12.0
1979-07-01 07:04:18.480 ,6,0,0.,12.0,0.,12.0,0.,12.0,0.,12.0
1979-07-01 07:04:30.480 ,6,0,0.,12.0,0.,12.0,0.,12.0,0.,12.0
1979-07-01 07:04:42.480 ,6,0,0.,12.0,0.,12.0,0.,12.0,0.,12.0
1979-07-01 07:04:54.480 ,7,0,0.,12.0,0.,12.0,0.,12.0,0.,12.0
1979-07-01 07:05:06.480 ,7,0,0.,12.0,0.,12.0,0.,12.0,0.,12.0
1979-07-01 07:05:18.480 ,7,0,0.,12.0,0.,12.0,0.,12.0,0.,12.0
1979-07-01 07:05:30.480 ,7,0,0.,12.0,0.,12.0,0.,12.0,0.,12.0
1979-07-01 07:05:42.480 ,7,0,0.,12.0,0.,12.0,0.,12.0,0.,12.0
1979-07-01 07:05:54.480 ,7,0,0.,12.0,0.,12.0,0.,12.0,0.,12.0
1979-07-01 07:06:06.480 ,7,0,0.,12.0,0.,12.0,0.,12.0,0.,12.0
1979-07-01 07:06:18.480 ,7,0,0.,12.0,0.,12.0,0.,12.0,0.,12.0
1979-07-01 07:06:30.480 ,6,0,0.,12.0,0.,12.0,0.,12.0,0.,12.0
1979-07-01 07:06:42.480 ,6,0,0.,12.0,0.,12.0,0.,12.0,0.,12.0
1979-07-01 07:06:54.480 ,6,0,0.,12.0,0.,12.0,0.,12.0,0.,12.0
1979-07-01 07:07:06.480 ,6,0,0.,12.0,0.,12.0,0.,12.0,0.,12.0
1979-07-01 07:07:18.480 ,5,0,0.,12.0,0.,12.0,0.,12.0,0.,12.0
1979-07-01 07:07:30.480 ,5,0,0.,12.0,0.,12.0,0.,12.0,0.,12.0
1979-07-01 07:07:42.480 ,5,0,0.,12.0,0.,12.0,0.,12.0,0.,12.0
1979-07-01 07:07:54.480 ,5,0,0.,12.0,0.,12.0,0.,12.0,0.,12.0
1979-07-01 07:08:06.480 ,4,0,0.,12.0,0.,12.0,0.,12.0,0.,12.0
1979-07-01 07:08:18.480 ,4,0,0.,12.0,0.,12.0,0.,12.0,0.,12.0
1979-07-01 07:08:30.480 ,4,0,0.,12.0,0.,12.0,0.,12.0,0.,12.0
1979-07-01 07:08:42.480 ,4,0,0.,12.0,0.,12.0,0.,12.0,0.,12.0
1979-07-01 07:08:54.480 ,3,0,0.,12.0,0.,12.0,0.,12.0,0.,12.0
1979-07-01 07:09:06.480 ,3,0,0.,12.0,0.,12.0,0.,12.0,0.,12.0
1979-07-01 07:09:18.480 ,3,0,0.,12.0,0.,12.0,0.,12.0,0.,12.0
1979-07-01 07:09:30.480 ,3,0,0.,12.0,0.,12.0,0.,12.0,0.,12.0
1979-07-01 07:09:42.480 ,2,0,0.,12.0,0.,12.0,0.,12.0,0.,12.0
1979-07-01 07:09:54.480 ,2,0,0.,12.0,0.,12.0,0.,12.0,0.,12.0
1979-07-01 07:10:06.480 ,2,0,0.,12.0,0.,12.0,0.,12.0,0.,12.0
1979-07-01 07:10:18.480 ,2,0,0.,12.0,0.,12.0,0.,12.0,0.,12.0
1979-07-01 07:10:30.480 ,1,0,0.,12.0,0.,12.0,0.,12.0,0.,12.0
1979-07-01 07:10:42.480 ,1,0,0.,12.0,0.,12.0,0.,12.0,0.,12.0
1979-07-01 07:10:54.480 ,1,0,0.,12.0,0.,12.0,0.,12.0,0.,12.0
1979-07-01 07:11:06.480 ,1,0,0.,12.0,0.,12.0,0.,12.0,0.,12.0
1979-07-01 07:11:18.480 ,0,0,0.,12.0,0.,12.0,0.,12.0,0.,12.0
1979-07-01 07:11:30.480 ,0,0,0.,12.0,0.,12.0,0.,12.0,0.,12.0
1979-07-01 07:11:42.480 ,0,0,0.,12.0,0.,12.0,0.,12.0,0.,12.0
1979-07-01 07:11:54.480 ,0,0,0.,12.0,0.,12.0,0.,12.0,0.,12.0
1979-07-01 07:12:06.480 ,0,0,0.,12.0,0.,12.0,0.,12.0,0.,12.0
1979-07-01 07:12:18.480 ,0,0,0.,12.0,0.,12.0,0.,12.0,0.,12.0
1979-07-01 07:12:30.480 ,0,0,0.,12.0,0.,12.0,0.,12.0,0.,12.0
1979-07-01 07:12:42.480 ,0,0,0.,12.0,0.,12.0,0.,12.0,0.,12.0
1979-07-01 07:12:54.480 ,1,0,0.,12.0,0.,12.0,0.,12.0,0.,12.0
1979-07-01 07:13:06.480 ,1,0,0.,12.0,0.,12.0,0.,12.0,0.,12.0
1979-07-01 07:13:18.480 ,1,0,0.,12.0,0.,12.0,0.,12.0,0.,12.0
1979-07-01 07:13:30.480 ,1,0,0.,12.0,0.,12.0,0.,12.0,0.,12.0
1979-07-01 07:13:42.480 ,2,0,0.,12.0,0.,12.0,0.,12.0,0.,12.0
1979-07-01 07:13:54.480 ,2,0,0.,12.0,0.,12.0,0.,12.0,0.,12.0
1979-07-01 07:14:06.480 ,2,0,0.,12.0,0.,12.0,0.,12.0,0.,12.0
1979-07-01 07:14:18.480 ,2,0,0.,12.0,0.,12.0,0.,12.0,0.,12.0
1979-07-01 07:14:30.480 ,3,0,0.,12.0,0.,12.0,0.,12.0,0.,12.0
1979-07-01 07:14:42.480 ,3,0,0.,12.0,0.,12.0,0.,12.0,0.,12.0
1979-07-01 07:14:54.480 ,3,0,0.,12.0,0.,12.0,0.,12.0,0.,12.0
1979-07-01 07:15:06.480 ,3,0,0.,12.0,0.,12.0,0.,12.0,0.,12.0
1979-07-01 07:15:18.480 ,4,0,0.,12.0,0.,12.0,0.,12.0,0.,12.0
1979-07-01 07:15:30.480 ,4,0,0.,12.0,0.,12.0,0.,12.0,0.,12.0
1979-07-01 07:15:42.480 ,4,0,0.,12.0,0.,12.0,0.,12.0,0.,12.0
1979-07-01 07:15:54.480 ,4,0,0.,12.0,0.,12.0,0.,12.0,0.,12.0
1979-07-01 07:16:06.480 ,5,0,0.,12.0,0.,12.0,0.,12.0,0.,12.0
1979-07-01 07:16:18.480 ,5,0,0.,12.0,0.,12.0,0.,12.0,0.,12.0
1979-07-01 07:16:30.480 ,5,0,0.,12.0,0.,12.0,0.,12.0,0.,12.0
1979-07-01 07:16:42.480 ,5,0,0.,12.0,0.,12.0,0.,12.0,0.,12.0
1979-07-01 07:16:54.480 ,6,0,0.,12.0,0.,12.0,0.,12.0,0.,12.0
1979-07-01 07:17:06.480 ,6,0,0.,12.0,0.,12.0,0.,12.0,0.,12.0
1979-07-01 07:17:18.480 ,6,0,0.,12.0,0.,12.0,0.,12.0,0.,12.0
1979-07-01 07:17:30.480 ,6,0,0.,12.0,0.,12.0,0.,12.0,0.,12.0